| time (UTC) | temp F | wind direction | speed MPH | gust MPH | rain 1hr in | rain 24hr in | rain mn in | humidity % | barometer mb |
| 20260504001538 | 89 | 239 | 12.0 | 14.0 | 0.00 | 0.00 | 0.00 | 12 | 1008.7 |
| 20260504001034 | 89 | 237 | 10.0 | 11.0 | 0.00 | 0.00 | 0.00 | 12 | 1008.6 |
| 20260504000531 | 89 | 216 | 11.0 | 14.0 | 0.00 | 0.00 | 0.00 | 12 | 1008.5 |
| 20260504000029 | 90 | 246 | 8.0 | 10.0 | 0.00 | 0.00 | 0.00 | 12 | 1008.6 |
| 20260503235527 | 90 | 255 | 6.0 | 9.0 | 0.00 | 0.00 | 0.00 | 12 | 1008.4 |
| 20260503235023 | 90 | 269 | 6.0 | 7.0 | 0.00 | 0.00 | 0.00 | 12 | 1008.6 |
| 20260503234521 | 90 | 269 | 9.0 | 10.0 | 0.00 | 0.00 | 0.00 | 12 | 1008.3 |
| 20260503234019 | 90 | 263 | 8.0 | 10.0 | 0.00 | 0.00 | 0.00 | 12 | 1008.3 |
| 20260503233515 | 90 | 232 | 5.0 | 6.0 | 0.00 | 0.00 | 0.00 | 12 | 1008.1 |
| 20260503233011 | 91 | 278 | 10.0 | 13.0 | 0.00 | 0.00 | 0.00 | 12 | 1008.4 |
| 20260503232508 | 91 | 213 | 5.0 | 6.0 | 0.00 | 0.00 | 0.00 | 12 | 1008.5 |
| 20260503232006 | 91 | 213 | 8.0 | 9.0 | 0.00 | 0.00 | 0.00 | 12 | 1008.3 |
| 20260503231504 | 91 | 197 | 3.0 | 3.0 | 0.00 | 0.00 | 0.00 | 14 | 1008.4 |
| 20260503231000 | 92 | 260 | 5.0 | 6.0 | 0.00 | 0.00 | 0.00 | 12 | 1008.2 |
| 20260503230457 | 91 | 241 | 5.0 | 7.0 | 0.00 | 0.00 | 0.00 | 14 | 1008.2 |
| 20260503225954 | 91 | 258 | 6.0 | 8.0 | 0.00 | 0.00 | 0.00 | 13 | 1008.3 |
| 20260503225451 | 91 | 199 | 7.0 | 9.0 | 0.00 | 0.00 | 0.00 | 14 | 1008.3 |
| 20260503224946 | 91 | 248 | 5.0 | 7.0 | 0.00 | 0.00 | 0.00 | 14 | 1008.4 |
| 20260503224443 | 91 | 231 | 4.0 | 6.0 | 0.00 | 0.00 | 0.00 | 13 | 1008.5 |
| 20260503223941 | 91 | 250 | 5.0 | 6.0 | 0.00 | 0.00 | 0.00 | 13 | 1008.9 |
| 20260503223439 | 91 | 237 | 6.0 | 9.0 | 0.00 | 0.00 | 0.00 | 14 | 1008.7 |
| 20260503222934 | 91 | 302 | 11.0 | 14.0 | 0.00 | 0.00 | 0.00 | 13 | 1008.9 |
| 20260503222433 | 91 | 284 | 3.0 | 3.0 | 0.00 | 0.00 | 0.00 | 13 | 1008.6 |
| 20260503221931 | 92 | 244 | 5.0 | 6.0 | 0.00 | 0.00 | 0.00 | 13 | 1009.0 |
| 20260503221429 | 93 | 207 | 4.0 | 5.0 | 0.00 | 0.00 | 0.00 | 13 | 1008.8 |
| 20260503220926 | 92 | 172 | 2.0 | 3.0 | 0.00 | 0.00 | 0.00 | 13 | 1008.8 |
| 20260503220422 | 92 | 119 | 1.0 | 1.0 | 0.00 | 0.00 | 0.00 | 13 | 1008.9 |
| 20260503215919 | 91 | 204 | 3.0 | 5.0 | 0.00 | 0.00 | 0.00 | 13 | 1009.0 |
| 20260503215416 | 90 | 249 | 5.0 | 7.0 | 0.00 | 0.00 | 0.00 | 14 | 1008.7 |
| 20260503214914 | 90 | 239 | 3.0 | 5.0 | 0.00 | 0.00 | 0.00 | 14 | 1008.9 |
| 20260503214411 | 90 | 171 | 4.0 | 6.0 | 0.00 | 0.00 | 0.00 | 14 | 1009.3 |
| 20260503213908 | 90 | 99 | 1.0 | 1.0 | 0.00 | 0.00 | 0.00 | 18 | 1009.2 |
| 20260503213406 | 89 | 84 | 0.0 | 1.0 | 0.00 | 0.00 | 0.00 | 20 | 1009.3 |
| 20260503212902 | 89 | 150 | 2.0 | 2.0 | 0.00 | 0.00 | 0.00 | 20 | 1009.6 |
| 20260503212400 | 89 | 113 | 1.0 | 1.0 | 0.00 | 0.00 | 0.00 | 22 | 1009.6 |
| 20260503211857 | 90 | 17 | 3.0 | 5.0 | 0.00 | 0.00 | 0.00 | 21 | 1009.6 |
| 20260503211354 | 90 | 221 | 0.0 | 0.0 | 0.00 | 0.00 | 0.00 | 22 | 1009.8 |
| 20260503210849 | 89 | 209 | 2.0 | 3.0 | 0.00 | 0.00 | 0.00 | 22 | 1010.0 |
| 20260503210347 | 88 | 110 | 0.0 | 0.0 | 0.00 | 0.00 | 0.00 | 23 | 1010.0 |
| 20260503205841 | 89 | 107 | 1.0 | 1.0 | 0.00 | 0.00 | 0.00 | 23 | 1010.1 |
| 20260503205338 | 89 | 226 | 0.0 | 0.0 | 0.00 | 0.00 | 0.00 | 22 | 1009.9 |
| 20260503204834 | 88 | 102 | 1.0 | 1.0 | 0.00 | 0.00 | 0.00 | 22 | 1010.2 |
| 20260503204332 | 87 | 256 | 3.0 | 3.0 | 0.00 | 0.00 | 0.00 | 22 | 1010.3 |
| 20260503203829 | 88 | 147 | 3.0 | 3.0 | 0.00 | 0.00 | 0.00 | 22 | 1010.4 |
| 20260503203327 | 87 | 114 | 1.0 | 1.0 | 0.00 | 0.00 | 0.00 | 23 | 1010.2 |
| 20260503202823 | 87 | 75 | 2.0 | 2.0 | 0.00 | 0.00 | 0.00 | 23 | 1010.6 |
| 20260503202322 | 87 | 109 | 2.0 | 3.0 | 0.00 | 0.00 | 0.00 | 24 | 1010.4 |
| 20260503201820 | 87 | 79 | 2.0 | 2.0 | 0.00 | 0.00 | 0.00 | 23 | 1010.6 |
| 20260503201316 | 87 | 102 | 0.0 | 0.0 | 0.00 | 0.00 | 0.00 | 24 | 1010.6 |
| 20260503200814 | 87 | 79 | 4.0 | 6.0 | 0.00 | 0.00 | 0.00 | 23 | 1010.7 |
| 20260503200309 | 87 | 103 | 2.0 | 2.0 | 0.00 | 0.00 | 0.00 | 23 | 1010.6 |
| 20260503195807 | 87 | 18 | 3.0 | 3.0 | 0.00 | 0.00 | 0.00 | 23 | 1011.2 |
| 20260503195304 | 87 | 154 | 3.0 | 3.0 | 0.00 | 0.00 | 0.00 | 22 | 1011.2 |
| 20260503194801 | 87 | 105 | 3.0 | 3.0 | 0.00 | 0.00 | 0.00 | 21 | 1011.1 |
| 20260503194256 | 86 | 132 | 0.0 | 1.0 | 0.00 | 0.00 | 0.00 | 22 | 1011.3 |
| 20260503193753 | 86 | 157 | 2.0 | 2.0 | 0.00 | 0.00 | 0.00 | 22 | 1011.2 |
| 20260503193249 | 86 | 137 | 6.0 | 8.0 | 0.00 | 0.00 | 0.00 | 22 | 1011.3 |
| 20260503192745 | 86 | 210 | 2.0 | 3.0 | 0.00 | 0.00 | 0.00 | 23 | 1011.3 |
| 20260503192240 | 85 | 92 | 4.0 | 7.0 | 0.00 | 0.00 | 0.00 | 25 | 1011.2 |
| 20260503191737 | 85 | 83 | 4.0 | 5.0 | 0.00 | 0.00 | 0.00 | 25 | 1011.3 |
| 20260503191234 | 85 | 164 | 3.0 | 3.0 | 0.00 | 0.00 | 0.00 | 26 | 1011.6 |
| 20260503190731 | 85 | 111 | 4.0 | 5.0 | 0.00 | 0.00 | 0.00 | 26 | 1011.7 |
| 20260503190228 | 85 | 157 | 2.0 | 2.0 | 0.00 | 0.00 | 0.00 | 27 | 1011.6 |
| 20260503185725 | 84 | 138 | 4.0 | 5.0 | 0.00 | 0.00 | 0.00 | 27 | 1011.6 |
| 20260503185220 | 84 | 138 | 2.0 | 3.0 | 0.00 | 0.00 | 0.00 | 27 | 1011.8 |
| 20260503184715 | 83 | 146 | 2.0 | 2.0 | 0.00 | 0.00 | 0.00 | 27 | 1012.0 |
| 20260503184212 | 83 | 113 | 4.0 | 5.0 | 0.00 | 0.00 | 0.00 | 28 | 1012.4 |
| 20260503183708 | 83 | 139 | 3.0 | 3.0 | 0.00 | 0.00 | 0.00 | 28 | 1012.2 |
| 20260503183206 | 83 | 176 | 2.0 | 2.0 | 0.00 | 0.00 | 0.00 | 28 | 1012.5 |
| 20260503182704 | 83 | 135 | 4.0 | 6.0 | 0.00 | 0.00 | 0.00 | 28 | 1012.5 |
| 20260503182202 | 82 | 110 | 3.0 | 3.0 | 0.00 | 0.00 | 0.00 | 28 | 1012.4 |
| 20260503181658 | 82 | 122 | 5.0 | 6.0 | 0.00 | 0.00 | 0.00 | 28 | 1012.7 |
| 20260503181155 | 83 | 129 | 5.0 | 6.0 | 0.00 | 0.00 | 0.00 | 28 | 1012.6 |
| 20260503180652 | 82 | 151 | 3.0 | 3.0 | 0.00 | 0.00 | 0.00 | 28 | 1012.7 |
| 20260503180150 | 82 | 151 | 6.0 | 7.0 | 0.00 | 0.00 | 0.00 | 28 | 1012.8 |
| 20260503175647 | 81 | 146 | 2.0 | 3.0 | 0.00 | 0.00 | 0.00 | 29 | 1013.0 |
| 20260503175144 | 81 | 90 | 4.0 | 6.0 | 0.00 | 0.00 | 0.00 | 29 | 1012.8 |
| 20260503174640 | 81 | 143 | 3.0 | 3.0 | 0.00 | 0.00 | 0.00 | 29 | 1013.0 |
| 20260503174137 | 82 | 201 | 2.0 | 3.0 | 0.00 | 0.00 | 0.00 | 29 | 1013.0 |
| 20260503173633 | 82 | 195 | 3.0 | 3.0 | 0.00 | 0.00 | 0.00 | 29 | 1013.1 |
| 20260503173130 | 82 | 161 | 2.0 | 2.0 | 0.00 | 0.00 | 0.00 | 28 | 1012.9 |
| 20260503172626 | 82 | 193 | 2.0 | 2.0 | 0.00 | 0.00 | 0.00 | 28 | 1013.2 |
| 20260503172124 | 82 | 118 | 3.0 | 3.0 | 0.00 | 0.00 | 0.00 | 29 | 1013.0 |
| 20260503171620 | 82 | 127 | 2.0 | 2.0 | 0.00 | 0.00 | 0.00 | 29 | 1013.3 |
| 20260503171117 | 82 | 177 | 3.0 | 3.0 | 0.00 | 0.00 | 0.00 | 29 | 1013.1 |
| 20260503170614 | 82 | 112 | 3.0 | 3.0 | 0.00 | 0.00 | 0.00 | 29 | 1013.1 |
| 20260503170111 | 81 | 113 | 4.0 | 5.0 | 0.00 | 0.00 | 0.00 | 29 | 1013.1 |
| 20260503151006 | 76 | 107 | 0.0 | 0.0 | 0.00 | 0.00 | 0.00 | 35 | 1013.3 |
| 20260503150503 | 76 | 134 | 1.0 | 1.0 | 0.00 | 0.00 | 0.00 | 35 | 1013.3 |
| 20260503131355 | 70 | 90 | 1.0 | 1.0 | 0.00 | 0.00 | 0.00 | 39 | 1012.6 |
| 20260503130853 | 70 | 76 | 1.0 | 1.0 | 0.00 | 0.00 | 0.00 | 39 | 1012.6 |
| 20260503130350 | 70 | 86 | 0.0 | 0.0 | 0.00 | 0.00 | 0.00 | 39 | 1012.4 |
| 20260503110744 | 74 | 135 | 4.0 | 5.0 | 0.00 | 0.00 | 0.00 | 34 | 1011.9 |
| 20260503110241 | 74 | 100 | 1.0 | 1.0 | 0.00 | 0.00 | 0.00 | 34 | 1012.0 |
| 20260503100207 | 75 | 127 | 1.0 | 2.0 | 0.00 | 0.00 | 0.00 | 33 | 1012.2 |
| 20260503090132 | 74 | 126 | 3.0 | 3.0 | 0.00 | 0.00 | 0.00 | 33 | 1012.2 |
| 20260503081602 | 75 | 93 | 2.0 | 3.0 | 0.00 | 0.00 | 0.00 | 32 | 1012.2 |
| 20260503081059 | 75 | 106 | 1.0 | 2.0 | 0.00 | 0.00 | 0.00 | 31 | 1012.2 |
| 20260503080555 | 76 | 131 | 1.0 | 1.0 | 0.00 | 0.00 | 0.00 | 31 | 1012.5 |
| 20260503072529 | 76 | 109 | 3.0 | 5.0 | 0.00 | 0.00 | 0.00 | 30 | 1012.7 |
| 20260503072026 | 77 | 107 | 1.0 | 1.0 | 0.00 | 0.00 | 0.00 | 30 | 1012.6 |
| 20260503071523 | 77 | 146 | 1.0 | 1.0 | 0.00 | 0.00 | 0.00 | 29 | 1012.7 |
| 20260503071020 | 77 | 116 | 5.0 | 8.0 | 0.00 | 0.00 | 0.00 | 29 | 1012.7 |
| 20260503070516 | 77 | 154 | 3.0 | 7.0 | 0.00 | 0.00 | 0.00 | 29 | 1013.0 |
| 20260503054940 | 78 | 86 | 2.0 | 2.0 | 0.00 | 0.00 | 0.00 | 28 | 1011.7 |
| 20260503054436 | 78 | 87 | 2.0 | 3.0 | 0.00 | 0.00 | 0.00 | 28 | 1011.7 |
| 20260503053934 | 78 | 90 | 1.0 | 1.0 | 0.00 | 0.00 | 0.00 | 28 | 1011.7 |
| 20260503053431 | 78 | 97 | 3.0 | 5.0 | 0.00 | 0.00 | 0.00 | 28 | 1011.8 |
| 20260503052927 | 79 | 86 | 4.0 | 6.0 | 0.00 | 0.00 | 0.00 | 28 | 1011.7 |
| 20260503052425 | 79 | 109 | 5.0 | 7.0 | 0.00 | 0.00 | 0.00 | 28 | 1011.8 |
| 20260503051921 | 79 | 104 | 5.0 | 6.0 | 0.00 | 0.00 | 0.00 | 28 | 1011.7 |
| 20260503051417 | 79 | 67 | 3.0 | 5.0 | 0.00 | 0.00 | 0.00 | 28 | 1011.8 |
| 20260503050915 | 79 | 54 | 3.0 | 6.0 | 0.00 | 0.00 | 0.00 | 27 | 1011.8 |
| 20260503050410 | 79 | 88 | 5.0 | 7.0 | 0.00 | 0.00 | 0.00 | 27 | 1011.8 |
| 20260503045908 | 79 | 70 | 2.0 | 2.0 | 0.00 | 0.00 | 0.00 | 27 | 1011.7 |
| 20260503045405 | 79 | 79 | 5.0 | 7.0 | 0.00 | 0.00 | 0.00 | 27 | 1011.6 |
| 20260503044902 | 79 | 84 | 7.0 | 9.0 | 0.00 | 0.00 | 0.00 | 27 | 1011.6 |
| 20260503044359 | 79 | 50 | 6.0 | 7.0 | 0.00 | 0.00 | 0.00 | 27 | 1011.9 |
| 20260503043856 | 79 | 57 | 3.0 | 5.0 | 0.00 | 0.00 | 0.00 | 26 | 1011.6 |
| 20260503043353 | 79 | 72 | 5.0 | 7.0 | 0.00 | 0.00 | 0.00 | 26 | 1011.6 |
| 20260503042849 | 79 | 61 | 5.0 | 8.0 | 0.00 | 0.00 | 0.00 | 26 | 1011.5 |
| 20260503042346 | 80 | 78 | 5.0 | 8.0 | 0.00 | 0.00 | 0.00 | 26 | 1011.3 |
| 20260503041842 | 80 | 87 | 5.0 | 7.0 | 0.00 | 0.00 | 0.00 | 26 | 1011.3 |
| 20260503041339 | 80 | 92 | 5.0 | 6.0 | 0.00 | 0.00 | 0.00 | 26 | 1010.9 |
| 20260503040837 | 80 | 67 | 6.0 | 7.0 | 0.00 | 0.00 | 0.00 | 25 | 1011.1 |
| 20260503040335 | 80 | 109 | 5.0 | 6.0 | 0.00 | 0.00 | 0.00 | 25 | 1010.9 |
| 20260503035831 | 80 | 46 | 4.0 | 6.0 | 0.00 | 0.00 | 0.00 | 25 | 1010.7 |
| 20260503035328 | 80 | 131 | 4.0 | 5.0 | 0.00 | 0.00 | 0.00 | 25 | 1010.6 |
| 20260503034826 | 80 | 28 | 5.0 | 6.0 | 0.00 | 0.00 | 0.00 | 25 | 1010.7 |
| 20260503034323 | 80 | 146 | 4.0 | 5.0 | 0.00 | 0.00 | 0.00 | 25 | 1010.6 |
| 20260503033820 | 80 | 53 | 5.0 | 6.0 | 0.00 | 0.00 | 0.00 | 25 | 1010.7 |
| 20260503033317 | 81 | 53 | 5.0 | 7.0 | 0.00 | 0.00 | 0.00 | 25 | 1010.6 |
| 20260503032815 | 81 | 43 | 3.0 | 3.0 | 0.00 | 0.00 | 0.00 | 24 | 1010.6 |
| 20260503032314 | 81 | 62 | 5.0 | 9.0 | 0.00 | 0.00 | 0.00 | 24 | 1010.7 |
| 20260503031811 | 81 | 80 | 2.0 | 2.0 | 0.00 | 0.00 | 0.00 | 24 | 1010.7 |
| 20260503031309 | 81 | 78 | 3.0 | 3.0 | 0.00 | 0.00 | 0.00 | 24 | 1010.7 |
| 20260503030805 | 81 | 54 | 2.0 | 2.0 | 0.00 | 0.00 | 0.00 | 24 | 1010.5 |
| 20260503030301 | 81 | 99 | 1.0 | 2.0 | 0.00 | 0.00 | 0.00 | 24 | 1010.5 |
| 20260503025758 | 81 | 55 | 4.0 | 5.0 | 0.00 | 0.00 | 0.00 | 24 | 1010.2 |
| 20260503025256 | 81 | 86 | 1.0 | 1.0 | 0.00 | 0.00 | 0.00 | 24 | 1010.4 |
| 20260503024752 | 82 | 91 | 0.0 | 1.0 | 0.00 | 0.00 | 0.00 | 23 | 1010.2 |
| 20260503024249 | 82 | 89 | 1.0 | 1.0 | 0.00 | 0.00 | 0.00 | 23 | 1010.3 |
| 20260503023746 | 82 | 57 | 1.0 | 2.0 | 0.00 | 0.00 | 0.00 | 23 | 1010.2 |
| 20260503023243 | 82 | 70 | 3.0 | 5.0 | 0.00 | 0.00 | 0.00 | 22 | 1010.1 |
| 20260503022739 | 83 | 91 | 3.0 | 3.0 | 0.00 | 0.00 | 0.00 | 22 | 1010.1 |
| 20260503022234 | 83 | 69 | 3.0 | 2.0 | 0.00 | 0.00 | 0.00 | 22 | 1010.3 |
| 20260503021731 | 83 | 136 | 4.0 | 6.0 | 0.00 | 0.00 | 0.00 | 22 | 1010.4 |
| 20260503021227 | 83 | 68 | 2.0 | 2.0 | 0.00 | 0.00 | 0.00 | 21 | 1010.0 |
| 20260503020725 | 84 | 80 | 1.0 | 1.0 | 0.00 | 0.00 | 0.00 | 21 | 1010.0 |
| 20260503020222 | 84 | 72 | 3.0 | 2.0 | 0.00 | 0.00 | 0.00 | 20 | 1010.1 |
| 20260503015719 | 84 | 113 | 1.0 | 3.0 | 0.00 | 0.00 | 0.00 | 20 | 1010.1 |
| 20260503015216 | 84 | 98 | 2.0 | 2.0 | 0.00 | 0.00 | 0.00 | 20 | 1010.2 |
| 20260503014711 | 85 | 78 | 1.0 | 1.0 | 0.00 | 0.00 | 0.00 | 20 | 1010.1 |
| 20260503014210 | 85 | 77 | 1.0 | 1.0 | 0.00 | 0.00 | 0.00 | 19 | 1010.1 |
| 20260503013706 | 85 | 94 | 1.0 | 1.0 | 0.00 | 0.00 | 0.00 | 19 | 1010.2 |
| 20260503013204 | 85 | 89 | 1.0 | 1.0 | 0.00 | 0.00 | 0.00 | 19 | 1010.2 |
| 20260503012701 | 85 | 131 | 0.0 | 1.0 | 0.00 | 0.00 | 0.00 | 19 | 1010.1 |
| 20260503012158 | 85 | 130 | 1.0 | 1.0 | 0.00 | 0.00 | 0.00 | 19 | 1010.2 |
| 20260503011654 | 86 | 138 | 1.0 | 1.0 | 0.00 | 0.00 | 0.00 | 19 | 1010.3 |
| 20260503011151 | 86 | 102 | 2.0 | 2.0 | 0.00 | 0.00 | 0.00 | 18 | 1010.3 |
| 20260503010647 | 86 | 116 | 3.0 | 3.0 | 0.00 | 0.00 | 0.00 | 18 | 1010.1 |
| 20260503010145 | 86 | 137 | 2.0 | 2.0 | 0.00 | 0.00 | 0.00 | 18 | 1010.2 |
| 20260503005642 | 86 | 82 | 0.0 | 0.0 | 0.00 | 0.00 | 0.00 | 18 | 1010.1 |
| 20260503005139 | 86 | 146 | 2.0 | 2.0 | 0.00 | 0.00 | 0.00 | 18 | 1010.1 |
| 20260503004635 | 87 | 124 | 3.0 | 3.0 | 0.00 | 0.00 | 0.00 | 18 | 1010.1 |
| 20260503004134 | 88 | 105 | 1.0 | 1.0 | 0.00 | 0.00 | 0.00 | 18 | 1010.0 |
| 20260503003631 | 88 | 86 | 1.0 | 1.0 | 0.00 | 0.00 | 0.00 | 18 | 1010.0 |
| 20260503003128 | 87 | 78 | 2.0 | 3.0 | 0.00 | 0.00 | 0.00 | 18 | 1010.0 |
| 20260503002625 | 87 | 128 | 2.0 | 2.0 | 0.00 | 0.00 | 0.00 | 18 | 1010.0 |
| 20260503002121 | 88 | 119 | 1.0 | 1.0 | 0.00 | 0.00 | 0.00 | 17 | 1010.0 |